User: anonymous   Login
Location: Jetmore Oil Field
(38.1181°N, 99.9337°W)
Time: 05:34:19
(UTC+00:00)
Language:

N. Korean satellite - Orbit

View from above orbital plane
View from above orbital plane
View from above satellite
View from above satellite

Ground track
Ground track

The orbit data is extracted from the following two-line orbital elements,

1 39026U 12072A   21209.74395344  .00002477  00000-0  85335-4 0  9993
2 39026  97.2456 201.6121 0033810 235.3719 124.4333 15.30442978479400
Epoch (UTC): 28 July 2021 17:51:17
Eccentricity: 0.0033810
inclination: 97.2456°
perigee height: 451 km
apogee height: 497 km
right ascension of ascending node: 201.6121°
argument of perigee: 235.3719°
revolutions per day: 15.30442978
mean anomaly at epoch: 124.4333°
orbit number at epoch: 47940

The dashed part of the orbit path shows where the satellite is in the earth's shadow,  

DLR